[[{"header":{"parameterUnit":"m.s-1","parameterCategory":1,"la1":30.2991,"la2":30.254,"lo1":-89.0895,"lo2":-89.0444,"dy":0.0017,"dx":0.0017,"nx":28,"ny":28,"refTime":"2025-04-04T21:00:00:Z","depth":0,"parameterNumber":2,"parameterNumberName":"U-component_of_WINDS"},"data":[0,0,0,0,0,0,0,0,0,0,0,0,0,0,0,0,0,0,0,0,0,0,0,0,0,0,0,0,0,0,0,0,0,0,0,0,0,0,0,0,0,0,0,0,0,0,0,0,0,0,0,0,0,0,0,0,0,0,-6.182,-6.1822,0,-6.195,-6.1951,-6.1953,-6.1926,-6.1924,-6.1922,-6.1919,-6.205,-6.2055,-6.2061,0,0,0,0,0,0,0,0,0,0,0,0,0,-6.1548,-6.1553,-6.182,-6.1822,-6.1823,-6.195,-6.1951,-6.1953,-6.1927,-6.1924,-6.1921,-6.1918,-6.2048,-6.2055,-6.2061,0,0,0,0,0,0,0,0,0,0,0,0,0,-6.1671,-6.1555,-6.182,-6.1825,-6.1827,-6.1949,-6.1951,-6.1954,-6.1927,-6.1924,-6.192,-6.1917,-6.2046,-6.2054,-6.2062,-6.2186,0,0,-6.2088,-6.2092,0,0,0,0,0,0,0,0,-6.1664,-6.1681,-6.1823,-6.1825,-6.1827,-6.1918,-6.1903,-6.2031,-6.1928,-6.1889,-6.1919,-6.1915,-6.2009,-6.202,-6.2052,-6.2192,-6.2198,-6.2089,-6.2094,-6.2098,-6.21,0,0,0,0,0,0,0,-6.1655,-6.1675,-6.1871,-6.1825,-6.1828,-6.1821,-6.1835,-6.1927,-6.1967,-6.1892,-6.1891,-6.1907,-6.2009,-6.2044,-6.2055,-6.2199,-6.2089,-6.2096,-6.2102,-6.2105,-6.2448,-6.2452,0,0,0,0,0,0,-6.1645,-6.1668,-6.1867,-6.1875,-6.1735,-6.1829,-6.1844,-6.1893,-6.1966,-6.1974,-6.191,-6.1905,-6.2031,-6.2045,-6.2059,-6.2208,-6.2098,-6.2106,-6.2111,-6.2444,-6.2449,-6.2453,0,0,0,0,0,0,-6.1639,-6.1663,-6.1862,-6.1771,-6.1796,-6.1837,-6.1892,-6.1897,-6.1932,-6.1979,-6.1986,-6.1938,-6.2029,-6.2047,-6.2155,-6.2212,-6.211,-6.2117,-6.2439,-6.2445,-6.2451,-6.2507,0,0,0,0,0,0,-6.1632,-6.1661,-6.1709,-6.1773,-6.1801,-6.1955,-6.1896,-6.1902,-6.1947,-6.1942,-6.2007,-6.2015,-6.2027,-6.2142,-6.2163,-6.2222,-6.2124,-6.2434,-6.2442,-6.2449,-6.25,-6.2514,-6.2526,0,0,0,0,0,-6.1622,-6.1719,-6.1711,-6.1735,-6.1861,-6.1959,-6.1975,-6.1988,-6.1952,-6.1999,-6.203,-6.2013,-6.2204,-6.2154,-6.2177,-6.2239,-6.243,-6.244,-6.2448,-6.2494,-6.2511,-6.2526,0,0,0,0,0,0,-6.1659,-6.1727,-6.1719,-6.184,-6.1894,-6.1954,-6.2014,-6.2006,-6.2071,-6.2064,-6.2077,-6.2092,-6.2201,-6.2232,-6.2175,-6.2363,-6.2312,-6.2326,-6.2338,-6.2355,-6.2368,-6.2357,-6.2131,0,0,0,0,0,-6.1681,-6.1755,-6.1811,-6.1912,-6.1939,-6.1973,-6.2016,-6.2022,-6.2078,-6.21,-6.2139,-6.2193,-6.2266,-6.2313,-6.2382,-6.2506,-6.2519,-6.256,-6.2573,-6.2584,-6.2595,-6.2662,-6.2681,-6.2482,-6.2482,-6.2482,0,0,-6.1727,-6.1774,-6.1819,-6.192,-6.1963,-6.2038,-6.1992,-6.2074,-6.213,-6.2112,-6.2216,-6.2247,-6.2309,-6.2425,-6.2478,-6.2453,-6.2653,-6.2595,-6.2603,-6.2609,-6.2673,-6.2692,-6.2709,-6.2489,-6.2487,-6.2487,0,0,-6.1849,-6.1893,-6.1981,-6.2026,-6.2092,-6.2114,-6.2135,-6.2198,-6.2218,-6.2323,-6.2311,-6.2378,-6.2503,-6.2547,-6.2586,-6.2729,-6.2715,-6.2751,-6.2818,-6.2883,-6.2899,-6.2913,-6.2962,-6.2979,-6.2763,-6.2763,-6.2763,0,-6.1897,-6.2012,-6.2028,-6.2111,-6.2156,-6.2146,-6.2235,-6.2277,-6.2362,-6.2393,-6.2365,-6.2521,-6.2562,-6.2688,-6.2724,-6.2756,-6.278,-6.2742,-6.2896,-6.291,-6.2923,-6.297,-6.2988,-6.2767,-6.2766,-6.2766,-6.2766,0,-6.2067,-6.2147,-6.2211,-6.2294,-6.2346,-6.2432,-6.2461,-6.2512,-6.2515,-6.254,-6.2646,-6.2696,-6.2775,-6.2807,-6.2809,-6.2934,-6.2916,-6.2892,-6.284,-6.2945,-6.2989,-6.3008,-6.2772,-6.2771,-6.277,-6.2769,0,0,-6.2212,-6.2306,-6.2328,-6.2366,-6.244,-6.2501,-6.2588,-6.2666,-6.2709,-6.2769,-6.284,-6.2948,-6.2926,-6.2971,-6.2979,-6.3037,-6.3146,-6.3006,-6.3008,-6.3028,-6.3284,-6.3299,-6.332,-6.3139,-6.3142,-6.3145,-6.3278,0,-6.2339,-6.2491,-6.2509,-6.2644,-6.2718,-6.2711,-6.2787,-6.284,-6.2866,-6.2932,-6.2962,-6.3037,-6.3004,-6.303,-6.3088,-6.312,-6.3196,-6.3111,-6.3203,-6.3206,-6.3184,-6.3343,-6.3359,-6.3482,-6.3295,-6.3298,-6.3301,0,-6.2506,-6.2572,-6.2715,-6.278,-6.2811,-6.2878,-6.2952,-6.3016,-6.3076,-6.3092,-6.3143,-6.3145,-6.3233,-6.3181,-6.3303,-6.3245,-6.3284,-6.3306,-6.3312,-6.3318,-6.3257,-6.3351,-6.3522,-6.3539,-6.3328,-6.3326,-6.3324,0,-6.2595,-6.272,-6.2821,-6.2854,-6.2932,-6.298,-6.3014,-6.3072,-6.3118,-6.3183,-6.3213,-6.3288,-6.3328,-6.3385,-6.3407,-6.3367,-6.3528,-6.3477,-6.3541,-6.3541,-6.3572,-6.3569,-6.3749,-6.3603,-6.3603,-6.3603,-6.3602,0,-6.2733,-6.2819,-6.2862,-6.2924,-6.3021,-6.3042,-6.3138,-6.3171,-6.3223,-6.329,-6.3291,-6.3354,-6.3381,-6.3449,-6.3467,-6.3564,-6.3583,-6.3597,-6.36,-6.3595,-6.3593,-6.3618,-6.3609,-6.3608,-6.3606,-6.3605,-6.3605,0,-6.2846,-6.2878,-6.2988,-6.3054,-6.3073,-6.3142,-6.3198,-6.3258,-6.3285,-6.3372,-6.3393,-6.3436,-6.3516,-6.3545,-6.3642,-6.3654,-6.3766,-6.3764,-6.3746,-6.3746,-6.3807,-6.38,-6.4006,-6.4034,-6.3873,-6.3875,-6.3876,0,-6.293,-6.2997,-6.3071,-6.3117,-6.3154,-6.3228,-6.3276,-6.33,-6.335,-6.3426,-6.3476,-6.3557,-6.3621,-6.375,-6.3789,-6.3864,-6.3861,-6.3929,-6.3872,-6.3865,-6.3859,-6.3854,-6.386,-6.3938,-6.394,-6.3941,-6.3942,0,-6.3075,-6.3088,-6.3158,-6.3234,-6.3291,-6.3352,-6.3411,-6.3449,-6.3482,-6.3538,-6.362,-6.3671,-6.3772,-6.3851,-6.3928,-6.3963,-6.3958,-6.3961,-6.3979,-6.3972,-6.3958,-6.3964,-6.3771,-6.3954,-6.3953,-6.3952,-6.3952,-6.3951,-6.3174,-6.3234,-6.3295,-6.3373,-6.3421,-6.3476,-6.3536,-6.3572,-6.3641,-6.3725,-6.3736,-6.3824,-6.3885,-6.3988,-6.4027,-6.4096,-6.4078,-6.4105,-6.4111,-6.4116,-6.412,-6.3951,-6.4111,-6.4111,-6.411,-6.411,-6.411,0,-6.3317,-6.3358,-6.3429,-6.3512,-6.3574,-6.3567,-6.3632,-6.3683,-6.3761,-6.3819,-6.3883,-6.3979,-6.4056,-6.4103,-6.4181,-6.4227,-6.4227,-6.4246,-6.4241,-6.4249,-6.4133,-6.4108,-6.4245,-6.4245,-6.4245,-6.4245,-6.4245,-6.4245,-6.3399,-6.3498,-6.3519,-6.3643,-6.3682,-6.377,-6.3807,-6.3859,-6.3904,-6.4011,-6.4076,-6.4107,-6.416,-6.4242,-6.4312,-6.4324,-6.4352,-6.4373,-6.4382,-6.4272,-6.4258,-6.4244,-6.4221,-6.4379,-6.4379,-6.4492,-6.4493,-6.4494]},{"header":{"parameterUnit":"m.s-1","parameterCategory":1,"la1":30.2991,"la2":30.254,"lo1":-89.0895,"lo2":-89.0444,"dy":0.0017,"dx":0.0017,"nx":28,"ny":28,"refTime":"2025-04-04T21:00:00:Z","depth":0,"parameterNumber":3,"parameterNumberName":"V-component_of_WINDS"},"data":[0,0,0,0,0,0,0,0,0,0,0,0,0,0,0,0,0,0,0,0,0,0,0,0,0,0,0,0,0,0,0,0,0,0,0,0,0,0,0,0,0,0,0,0,0,0,0,0,0,0,0,0,0,0,0,0,0,0,3.6446,3.6447,0,3.6524,3.6524,3.6525,3.6548,3.6547,3.6547,3.6547,3.6622,3.6624,3.6627,0,0,0,0,0,0,0,0,0,0,0,0,0,3.6316,3.6319,3.6446,3.6447,3.6448,3.6523,3.6525,3.6526,3.6548,3.6547,3.6547,3.6546,3.6621,3.6624,3.6627,0,0,0,0,0,0,0,0,0,0,0,0,0,3.6381,3.6319,3.6446,3.6469,3.6471,3.6523,3.6525,3.6526,3.6548,3.6547,3.6547,3.6546,3.662,3.6624,3.6627,3.6661,0,0,3.6638,3.664,0,0,0,0,0,0,0,0,3.6377,3.6386,3.6464,3.6467,3.647,3.6526,3.6506,3.6571,3.6548,3.6519,3.6547,3.6546,3.659,3.6596,3.6612,3.6665,3.6668,3.6638,3.664,3.6642,3.6643,0,0,0,0,0,0,0,3.6373,3.6383,3.6477,3.6465,3.6469,3.6474,3.6483,3.6519,3.6557,3.6521,3.6523,3.6532,3.6592,3.6608,3.6614,3.6669,3.6638,3.6641,3.6644,3.6645,3.6757,3.6758,0,0,0,0,0,0,3.6365,3.6379,3.6474,3.6479,3.6422,3.6477,3.6487,3.6508,3.6556,3.6563,3.6533,3.6533,3.6602,3.6609,3.6616,3.6661,3.6642,3.6645,3.6647,3.6756,3.6757,3.6758,0,0,0,0,0,0,3.6362,3.6373,3.6471,3.643,3.6442,3.648,3.6504,3.651,3.6527,3.6565,3.6572,3.6543,3.6602,3.6611,3.6651,3.6664,3.6647,3.665,3.6755,3.6756,3.6757,3.675,0,0,0,0,0,0,3.6358,3.6372,3.6385,3.643,3.6445,3.6505,3.6505,3.6512,3.6534,3.6535,3.6576,3.6583,3.6602,3.6645,3.6654,3.6669,3.6653,3.6754,3.6756,3.6757,3.6749,3.6751,3.6753,0,0,0,0,0,3.6353,3.6379,3.6386,3.6397,3.6462,3.6505,3.6514,3.6537,3.6534,3.6548,3.6573,3.6581,3.6661,3.6649,3.6659,3.6675,3.6753,3.6755,3.6757,3.6749,3.6751,3.6753,0,0,0,0,0,0,3.6333,3.6385,3.6393,3.6434,3.6465,3.6509,3.6527,3.6538,3.657,3.6569,3.6596,3.6605,3.6643,3.6663,3.6649,3.6712,3.6708,3.6711,3.6698,3.67,3.6702,3.6696,3.6656,0,0,0,0,0,3.6333,3.6365,3.6408,3.644,3.6455,3.6489,3.6508,3.6524,3.6557,3.657,3.6598,3.6628,3.6661,3.6682,3.6713,3.6753,3.6763,3.6769,3.677,3.6771,3.6774,3.6799,3.6803,3.6764,3.6764,3.6764,0,0,3.6334,3.6366,3.6384,3.6437,3.6463,3.6495,3.6499,3.6532,3.6556,3.6574,3.6614,3.6636,3.6672,3.6713,3.6732,3.673,3.6788,3.6774,3.6774,3.6777,3.6802,3.6805,3.6808,3.6765,3.6765,3.6765,0,0,3.6352,3.6379,3.641,3.6437,3.6477,3.65,3.6507,3.655,3.6566,3.6607,3.6622,3.6651,3.6705,3.6732,3.6752,3.6784,3.6793,3.6793,3.6801,3.6825,3.6828,3.6831,3.6844,3.6848,3.6796,3.6796,3.6796,0,3.6347,3.6397,3.6423,3.6457,3.648,3.6501,3.6532,3.6557,3.6605,3.662,3.6619,3.669,3.6716,3.6764,3.6772,3.6787,3.6797,3.6788,3.6826,3.6829,3.6832,3.6844,3.6849,3.6796,3.6796,3.6796,3.6796,0,3.639,3.6424,3.6444,3.6493,3.6518,3.655,3.6582,3.6605,3.6619,3.6642,3.6684,3.6717,3.6757,3.6769,3.6782,3.682,3.6818,3.682,3.6816,3.6835,3.6847,3.6852,3.6796,3.6796,3.6796,3.6796,0,0,3.6394,3.6461,3.6467,3.6491,3.6539,3.6566,3.66,3.6641,3.666,3.6693,3.6723,3.6771,3.6775,3.6798,3.6814,3.6835,3.6861,3.6836,3.6837,3.684,3.6906,3.6905,3.691,3.6868,3.6868,3.6869,3.6904,0,3.6419,3.6482,3.6508,3.6559,3.6592,3.6613,3.6643,3.6676,3.6699,3.673,3.6754,3.6789,3.679,3.6805,3.6827,3.6853,3.6875,3.6851,3.6895,3.6897,3.6886,3.6916,3.6913,3.6944,3.6909,3.6909,3.691,0,3.6455,3.6492,3.6546,3.6594,3.6608,3.6635,3.6676,3.6705,3.6744,3.6759,3.6787,3.6803,3.684,3.6834,3.6886,3.6869,3.6889,3.6905,3.6907,3.6912,3.6904,3.6923,3.6954,3.6959,3.6917,3.6917,3.6916,0,3.6455,3.6518,3.6559,3.6579,3.6634,3.6653,3.6676,3.6714,3.6738,3.6774,3.679,3.6829,3.685,3.688,3.6907,3.69,3.6957,3.6952,3.6971,3.697,3.6981,3.698,3.7018,3.6993,3.6993,3.6993,3.6993,0,3.648,3.6513,3.6561,3.6586,3.6624,3.6654,3.6691,3.6716,3.675,3.6781,3.6801,3.6829,3.6863,3.6895,3.6916,3.6957,3.6966,3.698,3.6985,3.6978,3.6977,3.6992,3.6991,3.6994,3.6994,3.6994,3.6993,0,3.6486,3.6519,3.6566,3.6616,3.6629,3.6655,3.6698,3.6724,3.6749,3.6788,3.6798,3.6837,3.6877,3.6907,3.6958,3.6972,3.7016,3.7021,3.7004,3.7007,3.7024,3.7022,3.7073,3.7081,3.705,3.705,3.7051,0,3.65,3.6526,3.658,3.6604,3.6628,3.6664,3.669,3.6722,3.6748,3.6795,3.6815,3.6857,3.6892,3.6955,3.6988,3.7027,3.7034,3.7049,3.704,3.7033,3.7036,3.7034,3.7038,3.705,3.705,3.705,3.7051,0,3.6522,3.6538,3.6575,3.6619,3.6649,3.6684,3.672,3.6738,3.6776,3.6804,3.6846,3.6874,3.6928,3.697,3.7014,3.7037,3.7051,3.7054,3.706,3.7054,3.7043,3.7051,3.7008,3.7052,3.7052,3.7052,3.7052,3.7052,3.6533,3.6558,3.6601,3.6643,3.6674,3.6707,3.6735,3.6765,3.6801,3.6849,3.6866,3.691,3.695,3.701,3.7035,3.707,3.707,3.7079,3.7081,3.7083,3.7084,3.7038,3.7078,3.7078,3.7078,3.7078,3.7078,0,3.6557,3.6586,3.6624,3.6675,3.6708,3.672,3.6761,3.6788,3.6827,3.6864,3.6899,3.6949,3.699,3.7027,3.7071,3.7092,3.7099,3.7102,3.7101,3.7107,3.708,3.7071,3.7096,3.7096,3.7096,3.7096,3.7096,3.7096,3.6573,3.6618,3.6639,3.67,3.6729,3.6774,3.6797,3.6828,3.6859,3.6914,3.695,3.6974,3.7012,3.7058,3.7097,3.7107,3.7122,3.7124,3.7135,3.711,3.7108,3.7106,3.7097,3.7127,3.7127,3.7159,3.7159,3.7159]}]]